Wetbulb
63.07 64.63 66.99 67.46 67.38 67.51 67.55 68.00 68.13 68.74 69.17 69.04 68.79 68.05 67.77 67.65 67.60 67.28 66.15 65.70 66.21 66.67 65.85 64.70 64.66 63.97 63.36 62.55 61.55 60.75 56.94 57.11
60.63 61.79 63.99 65.24 64.87 66.39 66.27 66.20 66.58 67.44 67.74 67.99 67.35 67.21 67.13 66.83 66.44 65.71 65.37 64.90 65.44 65.78 64.97 64.49 64.21 63.69 62.86 62.20 61.62 60.38 56.96 56.79
60.76 60.58 61.44 63.45 65.42 66.26 66.17 66.02 65.97 66.20 66.57 66.95 66.01 66.59 65.36 64.42 64.48 64.90 64.60 64.12 64.42 65.11 64.72 63.84 63.05 62.74 62.52 61.43 59.50 56.98 57.81 57.76
59.97 60.98 60.99 61.84 65.30 65.61 65.12 64.90 63.34 64.88 67.15 66.82 66.69 65.59 63.46 63.01 64.01 64.33 63.96 63.04 63.37 64.35 63.51 62.64 60.16 57.59 58.72 57.69 54.88 56.09 57.39 57.78
62.10 62.66 62.39 61.34 61.91 64.72 64.24 63.88 62.31 62.86 65.43 66.12 66.11 65.15 62.85 62.17 62.16 61.22 59.97 60.25 57.46 57.83 55.27 53.91 53.05 51.30 50.39 50.54 51.09 52.47 54.16 56.36
61.02 60.85 61.59 62.09 62.03 64.30 63.24 61.50 61.17 61.64 64.22 64.97 65.43 64.28 61.38 60.16 59.23 58.23 57.62 55.69 53.18 51.71 49.70 49.69 48.87 48.76 48.84 47.58 48.41 49.85 51.58 53.77
60.15 61.19 61.00 61.66 62.04 62.53 61.67 60.58 60.73 61.83 63.47 64.37 65.08 63.67 61.07 59.54 57.41 56.11 55.76 53.63 52.49 49.43 49.16 48.59 47.85 48.54 47.81 47.90 48.63 50.21 51.84 53.49
58.98 60.21 60.62 60.53 61.34 61.15 61.04 61.01 60.96 62.41 63.07 63.38 64.14 62.67 60.68 58.46 56.39 55.79 55.02 54.46 51.51 50.01 48.71 47.50 46.83 47.79 47.18 48.21 48.41 48.83 50.78 53.76
57.97 58.65 59.57 59.72 59.35 59.63 60.21 60.62 61.57 62.30 62.52 61.23 60.30 60.42 59.49 57.16 55.89 55.46 54.98 54.42 51.38 49.51 47.46 46.49 45.73 46.70 47.12 48.35 48.22 48.22 49.73 52.96
57.68 58.79 57.92 58.21 58.39 58.55 59.03 60.42 60.86 60.48 60.56 59.86 59.78 59.76 58.66 56.17 55.17 55.00 55.37 54.12 51.33 48.83 47.46 45.91 45.45 45.44 44.85 46.22 47.69 48.18 48.72 50.40
56.09 56.95 56.79 56.42 57.26 57.69 58.75 59.91 60.03 59.87 59.14 59.34 59.10 58.98 57.68 56.61 55.55 55.13 55.70 54.33 51.61 49.54 47.47 46.83 45.15 44.73 44.71 44.54 44.84 45.83 47.18 49.15
56.04 56.81 56.39 56.69 57.41 57.90 57.43 57.53 58.70 59.21 58.88 58.79 59.32 58.88 58.17 57.13 55.58 55.45 55.52 53.75 51.33 49.09 47.24 46.62 46.00 45.22 46.33 44.96 43.63 43.31 43.83 46.93
55.32 55.72 55.72 56.26 56.71 56.25 55.89 56.17 56.27 56.71 58.60 58.95 59.42 59.30 58.37 57.04 55.83 55.54 54.31 53.82 52.03 49.11 47.17 47.10 45.89 45.75 44.75 44.53 44.88 44.12 43.35 42.77
55.00 55.48 55.52 55.60 56.30 56.24 55.76 56.04 55.43 56.31 57.68 58.41 58.78 59.75 59.33 57.83 56.58 55.24 54.30 52.95 50.86 48.98 48.15 46.52 46.31 46.14 44.24 43.29 42.14 44.26 44.86 44.48
54.59 54.89 55.26 55.09 55.26 54.47 54.45 54.70 54.71 54.60 55.91 56.45 57.40 57.92 58.88 58.79 57.17 56.13 54.43 53.45 51.82 49.40 48.32 47.73 45.96 45.59 45.88 44.94 40.29 40.66 41.56 42.50
55.11 54.95 54.98 55.12 54.77 53.63 53.91 54.13 52.23 53.33 54.24 55.80 56.16 57.52 57.33 58.11 57.97 56.67 55.42 53.70 51.43 50.50 50.07 49.47 48.04 45.53 45.55 46.07 43.83 43.51 41.05 39.90
54.43 54.31 53.97 54.06 53.31 53.23 51.64 51.91 52.97 52.70 53.94 54.45 54.65 55.91 57.19 56.96 57.49 56.75 55.48 55.14 53.96 52.16 50.82 48.97 49.48 48.05 46.75 45.83 44.50 42.75 40.88 39.86
52.90 53.28 53.00 52.19 51.46 50.68 50.90 50.24 49.66 50.38 51.52 52.55 53.00 53.70 54.82 56.11 57.47 57.25 57.53 55.76 54.12 52.91 51.77 50.67 49.77 49.07 49.30 47.74 45.91 44.12 42.06 41.36
52.99 52.72 52.10 52.44 51.40 51.17 50.54 50.43 50.43 50.92 51.24 52.60 52.85 53.60 53.94 54.86 55.49 55.33 55.38 55.26 54.43 53.17 51.62 52.04 50.49 49.72 49.70 48.21 46.59 45.63 44.96 43.95
52.02 52.23 51.92 52.17 51.81 51.28 51.44 51.31 51.31 52.16 52.33 52.74 53.36 54.49 54.98 54.90 55.08 56.27 56.11 55.46 54.92 53.38 53.11 52.27 51.22 50.86 48.46 47.17 46.52 46.02 45.71 45.35
MSLP
1009.78 1010.39 1011.11 1010.90 1011.14 1011.12 1010.88 1011.37 1012.34 1013.91 1014.28 1014.40 1016.03 1016.82 1017.24 1017.49 1017.80 1018.18 1018.56 1018.95 1019.14 1019.53 1020.14 1020.49 1021.01 1021.30 1021.72 1022.23 1022.43 1022.73 1022.95 1023.26
1010.36 1010.43 1010.82 1011.09 1011.34 1011.36 1011.29 1011.79 1012.81 1014.03 1014.61 1015.30 1016.10 1017.00 1017.45 1017.92 1018.18 1018.47 1018.76 1019.14 1019.68 1019.92 1020.52 1020.98 1021.34 1021.84 1021.93 1022.21 1022.74 1023.11 1023.28 1023.57
1010.87 1010.71 1010.87 1011.10 1011.62 1011.39 1011.72 1012.34 1013.08 1014.24 1015.17 1015.44 1016.59 1017.08 1017.85 1018.24 1018.53 1018.76 1019.05 1019.57 1019.91 1020.02 1020.55 1021.04 1021.57 1022.23 1022.15 1022.39 1022.97 1023.52 1023.72 1023.63
1010.97 1010.95 1010.88 1010.92 1011.20 1010.61 1011.88 1012.88 1013.69 1014.51 1014.97 1016.04 1016.36 1017.17 1018.15 1018.44 1018.61 1018.95 1019.57 1019.94 1020.16 1020.52 1021.04 1021.23 1021.89 1022.61 1022.62 1022.78 1023.08 1023.84 1023.87 1023.72
1010.74 1010.56 1010.44 1010.68 1011.05 1011.20 1011.82 1012.67 1013.83 1014.15 1015.27 1016.04 1016.33 1017.41 1018.39 1018.68 1019.02 1019.69 1020.08 1020.20 1020.70 1021.12 1021.47 1021.90 1022.21 1022.94 1023.04 1023.00 1023.37 1023.96 1024.31 1023.99
1010.48 1010.30 1009.97 1009.55 1009.66 1009.97 1010.62 1012.07 1013.82 1014.93 1015.40 1016.04 1016.64 1017.49 1018.58 1018.87 1019.27 1019.91 1020.17 1020.70 1021.08 1021.55 1021.96 1022.32 1022.98 1023.32 1022.97 1023.54 1024.04 1024.45 1024.62 1024.64
1010.44 1009.99 1009.36 1007.32 1007.36 1008.47 1010.23 1012.34 1013.37 1014.67 1015.48 1016.05 1016.67 1017.35 1018.15 1018.72 1019.36 1019.92 1020.36 1021.05 1021.19 1021.87 1022.15 1022.65 1023.17 1023.16 1023.35 1023.72 1024.07 1024.23 1024.39 1024.70
1010.50 1010.31 1009.66 1008.60 1008.07 1008.83 1010.42 1012.42 1013.20 1014.29 1015.40 1016.05 1016.70 1017.23 1017.83 1018.51 1019.04 1019.76 1020.38 1020.92 1021.36 1021.70 1021.81 1022.80 1023.04 1023.29 1023.71 1023.98 1024.10 1024.31 1024.38 1024.67
1010.63 1010.69 1010.45 1009.95 1010.08 1010.51 1011.81 1012.84 1013.72 1014.03 1015.40 1016.05 1016.76 1017.05 1018.06 1018.37 1018.83 1019.36 1019.77 1021.08 1021.63 1021.60 1022.32 1022.70 1023.28 1023.58 1023.97 1024.20 1024.21 1024.41 1024.47 1024.63
1010.99 1011.08 1011.14 1011.05 1011.15 1011.80 1012.48 1013.20 1013.90 1014.52 1015.50 1016.07 1016.35 1017.19 1017.80 1018.56 1019.33 1019.50 1019.49 1021.05 1021.58 1021.54 1022.13 1022.75 1023.54 1023.81 1024.10 1024.53 1024.54 1024.33 1024.55 1024.73
1011.35 1011.39 1011.58 1011.74 1012.16 1012.51 1012.97 1013.53 1014.27 1015.19 1015.72 1016.20 1016.66 1017.06 1017.86 1018.69 1019.43 1019.25 1019.90 1020.93 1021.40 1021.62 1022.40 1022.41 1023.46 1023.97 1024.20 1024.54 1024.71 1024.40 1024.60 1024.90
1011.66 1011.82 1012.08 1012.32 1012.87 1013.44 1014.03 1014.56 1014.98 1015.09 1015.70 1016.33 1016.54 1017.22 1017.88 1018.74 1019.27 1020.02 1019.73 1020.91 1021.62 1021.86 1022.11 1022.67 1023.28 1023.64 1024.15 1024.73 1024.98 1024.93 1024.78 1025.01
1012.05 1012.09 1012.34 1012.60 1013.04 1013.56 1014.27 1014.60 1015.22 1015.78 1015.71 1016.12 1016.18 1017.31 1018.03 1018.38 1019.31 1019.81 1020.01 1020.85 1021.34 1021.61 1022.09 1022.71 1023.33 1023.73 1024.56 1025.17 1024.95 1024.92 1024.90 1025.06
1012.09 1012.30 1012.52 1012.65 1013.11 1013.78 1014.43 1015.11 1015.60 1015.96 1015.74 1016.04 1016.49 1016.99 1018.05 1018.72 1018.79 1019.66 1019.92 1020.81 1021.22 1021.35 1021.71 1022.68 1023.09 1023.19 1024.05 1024.86 1025.19 1025.14 1024.85 1024.82
1011.93 1012.35 1012.75 1012.96 1013.42 1014.05 1014.96 1015.41 1015.97 1016.12 1016.33 1016.54 1017.15 1017.68 1018.13 1017.78 1018.60 1019.13 1019.72 1020.20 1020.70 1021.04 1021.30 1021.71 1022.52 1023.16 1023.01 1023.50 1024.97 1024.69 1024.60 1024.61
1011.76 1012.16 1012.57 1012.98 1013.32 1013.95 1014.56 1014.78 1015.31 1015.55 1016.27 1016.92 1017.49 1017.61 1018.05 1017.67 1018.30 1018.77 1019.14 1019.67 1020.07 1020.44 1020.90 1021.17 1021.62 1022.24 1023.13 1023.06 1023.28 1023.50 1024.18 1024.75
1011.67 1012.19 1012.64 1013.00 1013.40 1013.70 1014.24 1014.85 1015.18 1015.48 1016.03 1016.58 1017.20 1017.52 1017.40 1017.66 1018.04 1018.38 1018.73 1019.08 1019.48 1019.82 1020.42 1020.88 1020.95 1021.18 1021.43 1022.46 1023.04 1023.38 1023.51 1024.09
1011.79 1012.07 1012.55 1012.88 1013.27 1013.67 1014.02 1014.30 1014.95 1015.66 1015.98 1016.25 1016.67 1016.71 1017.11 1017.40 1017.74 1017.81 1017.81 1018.39 1018.68 1019.10 1019.72 1020.27 1020.47 1020.63 1020.80 1021.14 1021.50 1022.36 1023.12 1023.69
1011.48 1011.99 1012.43 1012.85 1013.38 1013.47 1013.73 1014.09 1014.67 1014.94 1015.46 1015.97 1016.40 1016.59 1016.68 1016.70 1017.00 1017.24 1017.47 1017.82 1018.14 1018.49 1019.08 1019.50 1019.84 1020.19 1020.44 1020.69 1020.86 1021.05 1021.52 1022.19
1010.41 1011.02 1011.74 1012.08 1012.95 1013.10 1013.48 1013.83 1014.18 1014.52 1014.93 1015.35 1015.47 1015.84 1016.01 1016.15 1016.27 1016.36 1016.76 1017.19 1017.56 1017.95 1018.40 1018.89 1018.99 1019.25 1019.61 1019.92 1020.50 1020.75 1020.97 1021.63
Wind_Speed
5 6 9 12 10 16 23 25 22 16 18 26 21 18 17 19 21 22 20 18 19 22 24 23 21 20 18 16 16 16 8 6
3 4 1 3 5 11 19 22 20 16 15 20 17 15 15 18 20 21 20 18 19 22 22 21 19 18 18 17 15 14 8 7
2 1 4 3 8 11 16 21 21 18 9 19 16 10 10 14 17 21 19 16 17 20 21 20 18 15 16 16 13 4 5 5
4 5 5 5 6 11 15 15 12 12 9 12 11 10 8 9 15 19 18 15 17 20 20 19 14 6 7 12 5 4 3 5
4 4 4 8 8 11 9 8 8 6 7 10 11 8 5 5 7 8 8 11 7 10 9 5 8 5 4 6 6 5 2 3
1 4 7 14 12 12 16 13 11 10 8 12 9 7 5 6 5 5 6 4 6 5 5 5 6 5 8 7 6 4 3 2
1 4 7 8 15 16 16 14 14 12 6 10 9 9 8 6 5 5 6 4 7 5 7 6 6 6 6 7 6 5 6 3
1 4 6 8 8 18 13 10 14 11 7 6 8 8 8 7 8 7 6 5 5 7 8 6 5 5 6 5 6 5 6 5
4 5 5 11 14 14 11 7 9 10 8 9 9 8 7 8 7 8 9 4 6 7 5 6 5 4 5 4 4 5 5 5
5 5 7 9 10 10 9 6 6 7 6 7 10 9 8 6 4 6 9 5 5 6 6 6 5 4 4 3 3 4 5 5
6 7 8 9 10 8 5 6 6 6 6 6 9 10 7 7 5 5 9 5 5 6 2 6 4 4 4 4 4 4 5 4
6 5 9 11 9 8 5 5 4 6 6 6 9 5 8 6 5 5 8 5 4 4 5 3 3 4 3 2 0 1 3 4
7 7 10 10 9 10 5 5 5 3 7 10 11 8 8 7 5 5 5 7 7 6 4 5 2 3 4 1 0 2 3 4
9 8 8 10 8 6 3 3 3 3 3 5 5 5 8 9 8 7 7 5 6 6 5 3 2 5 4 2 1 2 3 5
10 10 9 8 9 7 5 5 3 2 3 4 2 5 6 7 8 8 7 6 7 7 6 7 5 4 5 5 3 6 1 1
10 10 9 8 10 8 9 9 10 7 4 4 4 6 7 6 7 7 7 6 6 7 6 5 5 6 1 2 1 3 4 1
9 10 10 10 11 11 9 8 6 3 3 5 6 7 6 6 7 7 7 7 8 9 7 7 4 4 5 4 2 1 2 3
9 10 10 9 9 9 10 11 7 6 5 5 4 3 4 7 8 8 9 8 7 9 10 11 10 4 5 4 4 5 3 2
12 13 14 12 12 11 11 10 10 11 10 8 6 5 5 6 7 7 5 7 8 8 10 11 10 8 7 6 3 4 4 4
16 16 13 13 12 12 9 10 7 7 8 7 7 8 7 6 6 7 10 9 9 9 7 9 10 9 10 8 5 5 6 4
Wind_Direction
195 158 183 175 179 157 140 136 138 153 150 139 147 148 144 138 132 127 128 124 125 129 132 129 130 126 122 120 114 111 98 100
339 79 216 216 195 159 142 137 142 159 158 143 134 139 136 135 129 129 128 126 128 131 130 126 124 128 127 118 110 106 97 101
198 172 204 208 208 161 133 137 146 152 152 132 138 135 130 134 136 131 129 127 123 127 128 126 122 120 116 111 105 97 109 105
241 221 205 197 221 168 146 147 153 156 145 152 149 132 143 140 132 126 129 120 116 126 125 120 115 113 113 110 102 108 114 114
262 246 227 202 211 172 156 144 141 140 157 166 149 136 131 123 118 118 128 116 112 118 113 108 112 123 128 106 107 116 145 98
282 260 254 239 203 199 148 140 145 159 190 167 152 141 136 131 125 121 122 121 112 102 104 97 95 137 108 99 105 120 100 85
337 322 304 261 160 148 140 151 150 170 155 163 153 150 147 133 123 120 125 123 123 124 119 123 137 120 111 119 130 125 117 121
105 25 5 67 82 115 117 149 146 148 155 147 144 148 149 149 143 136 122 137 139 147 130 136 120 123 119 138 141 130 124 129
106 77 48 93 101 106 116 118 149 144 157 149 159 133 153 147 155 153 135 131 136 120 107 117 99 99 126 138 141 136 126 133
123 118 88 94 106 119 127 118 128 127 143 158 143 148 138 124 140 170 123 141 159 128 144 109 126 140 139 169 156 138 139 143
113 134 123 115 116 115 101 119 121 139 136 143 139 144 131 149 150 155 140 148 157 140 129 117 148 151 153 158 181 152 155 150
97 126 129 120 116 127 95 92 138 141 137 144 138 120 129 134 126 180 134 135 138 137 140 95 149 151 122 132 344 145 148 186
124 134 143 141 137 141 138 144 131 132 158 154 127 152 157 153 158 153 139 167 177 162 116 147 126 143 106 35 292 225 212 212
147 134 148 143 137 122 93 111 91 108 78 91 131 134 177 182 157 177 167 165 169 170 154 141 128 176 142 117 235 309 244 212
159 154 150 146 134 112 115 92 74 168 91 75 167 182 201 168 177 173 175 170 185 186 182 165 156 203 204 146 133 224 147 79
167 163 161 151 151 142 165 172 168 180 157 152 200 185 206 169 176 178 175 184 178 190 194 189 156 172 215 209 49 138 178 291
176 170 175 172 171 179 170 170 183 154 159 177 202 194 189 193 191 182 180 193 199 192 193 205 209 166 167 146 140 104 110 137
180 180 191 186 185 176 178 175 171 182 196 202 210 222 202 193 195 193 197 197 195 197 204 207 209 207 189 168 169 164 173 155
183 186 196 195 198 193 189 184 188 194 201 211 195 212 226 220 187 194 197 205 206 199 200 209 203 205 193 200 177 173 146 149
195 194 198 194 200 201 199 198 200 204 204 218 221 222 219 202 207 211 217 212 213 206 209 211 208 209 190 183 181 176 160 163